• In Hungary
  • List of Countries
  • For 7 days
  • Water Temperature
  • Satellite Maps
  • Weather Map
  • News
  • Weather Widgets
  • user-avatar
    Login

    Hourly Weather Bolzano

    Today, 21 June, Thursday

    Time Temperature Precipitation Wind Pressure Humidity
    00:00 +21°C° 0.2 mm 1 mps 742 mmHg 93%
    01:00 +21°C° 0.2 mm 1 mps 742 mmHg 93%
    02:00 +21°C° 0.1 mm 1 mps 742 mmHg 93%
    03:00 +21°C° 0.1 mm 1 mps 742 mmHg 93%
    04:00 +20°C° 0.1 mm 1 mps 741 mmHg 93%
    05:00 +22°C° 0 mm 1 mps 741 mmHg 88%
    06:00 +24°C° 0 mm 1 mps 741 mmHg 83%
    07:00 +24°C° 0 mm 0 mps 741 mmHg 78%
    08:00 +27°C° 0 mm 1 mps 741 mmHg 69%
    09:00 +29°C° 0 mm 1 mps 740 mmHg 61%
    10:00 +31°C° 0 mm 1 mps 740 mmHg 52%
    11:00 +32°C° 0.4 mm 1 mps 740 mmHg 52%
    12:00 +32°C° 0.4 mm 1 mps 739 mmHg 51%
    13:00 +32°C° 0.4 mm 2 mps 739 mmHg 51%
    14:00 +32°C° 1.1 mm 2 mps 739 mmHg 54%
    15:00 +31°C° 1.1 mm 2 mps 738 mmHg 58%
    16:00 +31°C° 1.1 mm 2 mps 738 mmHg 61%
    17:00 +29°C° 1.4 mm 2 mps 738 mmHg 68%
    18:00 +28°C° 1.4 mm 2 mps 738 mmHg 75%
    19:00 +27°C° 1.4 mm 2 mps 738 mmHg 82%
    20:00 +25°C° 1.2 mm 2 mps 739 mmHg 85%
    21:00 +24°C° 1.2 mm 2 mps 739 mmHg 88%
    22:00 +23°C° 1.2 mm 2 mps 739 mmHg 91%
    23:00 +21°C° 0.5 mm 2 mps 739 mmHg 91%

    Tomorrow, 22 June, Friday

    Time Temperature Precipitation Wind Pressure Humidity
    00:00 +21°C° 0.5 mm 2 mps 739 mmHg 91%
    01:00 +20°C° 0.5 mm 2 mps 739 mmHg 91%
    02:00 +20°C° 0.2 mm 2 mps 739 mmHg 91%
    03:00 +19°C° 0.2 mm 2 mps 739 mmHg 91%
    04:00 +19°C° 0.2 mm 2 mps 739 mmHg 91%
    05:00 +19°C° 0.1 mm 2 mps 739 mmHg 88%
    06:00 +20°C° 0.1 mm 2 mps 740 mmHg 84%
    07:00 +21°C° 0.1 mm 3 mps 740 mmHg 80%
    08:00 +23°C° 0.1 mm 2 mps 740 mmHg 71%
    09:00 +25°C° 0.1 mm 2 mps 740 mmHg 63%
    10:00 +26°C° 0.1 mm 2 mps 740 mmHg 54%
    11:00 +27°C° 0.1 mm 2 mps 740 mmHg 49%
    12:00 +28°C° 0.1 mm 3 mps 740 mmHg 44%
    13:00 +28°C° 0.1 mm 3 mps 740 mmHg 39%
    14:00 +28°C° 0.1 mm 3 mps 741 mmHg 41%
    15:00 +27°C° 0.1 mm 3 mps 741 mmHg 42%
    16:00 +27°C° 0.1 mm 3 mps 741 mmHg 44%
    17:00 +25°C° 0 mm 3 mps 741 mmHg 51%
    18:00 +24°C° 0 mm 2 mps 741 mmHg 57%
    19:00 +21°C° 0 mm 2 mps 742 mmHg 64%
    20:00 +20°C° 0 mm 2 mps 742 mmHg 69%
    21:00 +18°C° 0 mm 2 mps 743 mmHg 75%
    22:00 +16°C° 0 mm 2 mps 744 mmHg 81%
    23:00 +16°C° 0 mm 2 mps 744 mmHg 82%

    Day after tomorrow, 23 June, Saturday

    Time Temperature Precipitation Wind Pressure Humidity
    00:00 +15°C° 0 mm 1 mps 744 mmHg 83%
    01:00 +15°C° 0 mm 1 mps 744 mmHg 84%
    02:00 +14°C° 0 mm 1 mps 744 mmHg 85%
    03:00 +14°C° 0 mm 1 mps 744 mmHg 85%
    04:00 +13°C° 0 mm 1 mps 744 mmHg 85%
    05:00 +15°C° 0 mm 1 mps 744 mmHg 78%
    06:00 +18°C° 0 mm 1 mps 744 mmHg 70%
    07:00 +19°C° 0 mm 1 mps 743 mmHg 63%
    08:00 +22°C° 0 mm 1 mps 743 mmHg 55%
    09:00 +24°C° 0 mm 1 mps 743 mmHg 47%
    10:00 +26°C° 0 mm 1 mps 743 mmHg 39%
    11:00 +27°C° 0 mm 2 mps 743 mmHg 38%
    12:00 +27°C° 0 mm 2 mps 743 mmHg 37%
    13:00 +28°C° 0 mm 2 mps 742 mmHg 36%
    14:00 +28°C° 0 mm 2 mps 742 mmHg 38%
    15:00 +28°C° 0 mm 2 mps 742 mmHg 40%
    16:00 +27°C° 0 mm 2 mps 741 mmHg 42%
    17:00 +26°C° 0 mm 2 mps 741 mmHg 52%
    18:00 +25°C° 0 mm 2 mps 742 mmHg 61%
    19:00 +23°C° 0 mm 2 mps 742 mmHg 70%
    20:00 +20°C° 0.1 mm 2 mps 742 mmHg 77%
    21:00 +20°C° 0.1 mm 1 mps 743 mmHg 85%
    22:00 +18°C° 0.1 mm 1 mps 743 mmHg 92%
    23:00 +18°C° 0 mm 1 mps 743 mmHg 92%

    24 June, Sunday

    Time Temperature Precipitation Wind Pressure Humidity
    00:00 +18°C° 0 mm 1 mps 743 mmHg 92%
    01:00 +18°C° 0 mm 1 mps 743 mmHg 92%
    02:00 +18°C° 0.1 mm 1 mps 742 mmHg 91%
    03:00 +18°C° 0.1 mm 1 mps 742 mmHg 91%
    04:00 +16°C° 0.1 mm 1 mps 742 mmHg 90%
    05:00 +18°C° 0.2 mm 1 mps 742 mmHg 87%
    06:00 +19°C° 0.2 mm 1 mps 742 mmHg 85%
    07:00 +19°C° 0.2 mm 1 mps 742 mmHg 82%
    08:00 +21°C° 0.2 mm 1 mps 742 mmHg 76%
    09:00 +22°C° 0.2 mm 1 mps 742 mmHg 69%
    10:00 +23°C° 0.2 mm 1 mps 742 mmHg 63%
    11:00 +24°C° 0.3 mm 1 mps 742 mmHg 61%
    12:00 +24°C° 0.3 mm 2 mps 742 mmHg 60%
    13:00 +25°C° 0.3 mm 2 mps 742 mmHg 58%
    14:00 +25°C° 0.7 mm 2 mps 742 mmHg 60%
    15:00 +24°C° 0.7 mm 2 mps 741 mmHg 62%
    16:00 +24°C° 0.7 mm 2 mps 741 mmHg 63%
    17:00 +23°C° 0.6 mm 2 mps 742 mmHg 68%
    18:00 +21°C° 0.6 mm 2 mps 742 mmHg 72%
    19:00 +20°C° 0.6 mm 2 mps 742 mmHg 77%
    20:00 +20°C° 0.2 mm 1 mps 742 mmHg 81%
    21:00 +18°C° 0.2 mm 1 mps 743 mmHg 86%
    22:00 +16°C° 0.2 mm 1 mps 743 mmHg 91%
    23:00 +15°C° 0 mm 1 mps 743 mmHg 91%

    25 June, Monday

    Time Temperature Precipitation Wind Pressure Humidity
    00:00 +15°C° 0 mm 1 mps 743 mmHg 91%
    01:00 +14°C° 0 mm 1 mps 743 mmHg 91%
    02:00 +14°C° 0 mm 1 mps 743 mmHg 91%
    03:00 +14°C° 0 mm 1 mps 743 mmHg 91%
    04:00 +13°C° 0 mm 1 mps 743 mmHg 91%
    05:00 +15°C° 0 mm 1 mps 743 mmHg 84%
    06:00 +18°C° 0 mm 1 mps 743 mmHg 77%
    07:00 +19°C° 0 mm 1 mps 743 mmHg 71%
    08:00 +22°C° 0 mm 1 mps 743 mmHg 60%
    09:00 +24°C° 0 mm 1 mps 743 mmHg 50%
    10:00 +26°C° 0 mm 1 mps 743 mmHg 39%
    11:00 +27°C° 0.1 mm 2 mps 742 mmHg 38%
    12:00 +27°C° 0.1 mm 2 mps 742 mmHg 37%
    13:00 +28°C° 0.1 mm 2 mps 742 mmHg 37%
    14:00 +28°C° 0.2 mm 2 mps 742 mmHg 40%
    15:00 +27°C° 0.2 mm 2 mps 742 mmHg 42%
    16:00 +27°C° 0.2 mm 2 mps 742 mmHg 45%
    17:00 +26°C° 0.2 mm 2 mps 742 mmHg 54%
    18:00 +24°C° 0.2 mm 2 mps 742 mmHg 62%
    19:00 +23°C° 0.2 mm 2 mps 742 mmHg 70%
    20:00 +21°C° 0.1 mm 1 mps 743 mmHg 77%
    21:00 +19°C° 0.1 mm 1 mps 743 mmHg 85%
    22:00 +18°C° 0.1 mm 1 mps 744 mmHg 92%
    23:00 +16°C° 0 mm 1 mps 744 mmHg 92%

    26 June, Tuesday

    Time Temperature Precipitation Wind Pressure Humidity
    00:00 +16°C° 0 mm 1 mps 744 mmHg 93%
    01:00 +16°C° 0 mm 1 mps 744 mmHg 93%
    02:00 +15°C° 0 mm 1 mps 743 mmHg 92%
    03:00 +15°C° 0 mm 1 mps 743 mmHg 91%
    04:00 +15°C° 0 mm 1 mps 743 mmHg 90%
    05:00 +18°C° 0 mm 1 mps 743 mmHg 82%
    06:00 +20°C° 0 mm 1 mps 743 mmHg 74%
    07:00 +22°C° 0 mm 1 mps 743 mmHg 66%
    08:00 +24°C° 0 mm 1 mps 743 mmHg 57%
    09:00 +26°C° 0 mm 1 mps 743 mmHg 48%
    10:00 +28°C° 0 mm 1 mps 743 mmHg 39%
    11:00 +29°C° 0 mm 1 mps 743 mmHg 38%
    12:00 +30°C° 0 mm 2 mps 742 mmHg 37%
    13:00 +31°C° 0 mm 2 mps 742 mmHg 37%
    14:00 +30°C° 0 mm 2 mps 742 mmHg 40%
    15:00 +30°C° 0 mm 2 mps 742 mmHg 43%
    16:00 +29°C° 0 mm 2 mps 742 mmHg 47%
    17:00 +28°C° 0 mm 2 mps 742 mmHg 55%
    18:00 +27°C° 0 mm 2 mps 742 mmHg 64%
    19:00 +25°C° 0 mm 2 mps 743 mmHg 73%
    20:00 +24°C° 0.1 mm 1 mps 743 mmHg 80%
    21:00 +22°C° 0.1 mm 1 mps 744 mmHg 87%
    22:00 +18°C° 0.1 mm 0 mps 744 mmHg 94%
    23:00 +18°C° 0 mm 0 mps 744 mmHg 94%
    Show more